COSMOS 1275 DEB, 17642

Orbit data source: Space-Track

COSMOS 1275 DEB, 17642 is space debris in LEO originally from a launch on Thu, 04 Jun 1981 UTC launched from the Plesetsk Missile And Space Complex (PKMTR). Debris objects in space refer to the collection of defunct objects orbiting the Earth. Examples of debris include non-operational satellites, rocket bodies, and fragments generated from explosions, collisions, or faulty payload assembly.

Loading next visibility...
Identifier
17642, 1981-053LM
Orbit
LEO
Country
Flag of CISCIS
Related business
Manufacturer
Unknown
Mission
Spacecraft
Bus & Motor
Unknown
Mass
Unknown
Launch date (UTC)
1981-06-04 (45 years ago)
Launch vehicle
Unknown
Launch site
Plesetsk Missile And Space Complex (PKMTR)
Object type
Payload
Rocket body
Debris
Shape & HBR
Unknown shape, 0.1 m
Radar Cross Section
Medium (>0.1 m² and <1 m²)

Expand to show TLE details & history
Last TLE update: 1 day ago

TLE from 1 day ago
0 COSMOS 1275 DEB
1 17642U 81053LM  26171.26789043  .00003185  00000-0  93211-3 0  9999
2 17642  82.8596 108.6175 0032811  99.2628 261.2279 14.43424232137255
Epoch: 2026-06-20T06:25Z
TLE epoch observation values (Epoch: 2026-06-20T06:25:45.733Z)
Latitude
-0.00003°
Longitude
103.69199°
Altitude
753.841 km
Speed
7.476 km/s
True Right ascension
07h 14m 28s
True Declination
0° 00' 00"
Sunlit
Object was in daylight at epoch
Visualization orbit readout
Latitude
Unknown
Longitude
Unknown
Altitude
Unknown
Speed
Unknown
Apparent Right ascension
Unknown
Apparent Declination
Unknown
Sunlit
N/A
Visualization observer readout
Local Sidereal Time
02:44:39
Azimuth
Unknown
Elevation
Unknown
Doppler factor
Unknown
Orbital elements
Apogee altitude
767.634 km
Perigee altitude
720.896 km
Semi-major axis
7,122.402 km
Eccentricity
0.00328
Inclination
82.8596°
RAAN
108.6175°
Arg. of periapsis
99.2628°
True anomaly
260.85655°
Mean anomaly
261.2279°
Eccentric anomaly
261.0422°
Mean motion
3.6108 °/min
Orbital period
99.7 mins
BSTAR
0.00093211
Loading maneuver chart data...
Computing Atmospheric mass density...

Documentation

Showing up to 5 results
|